Prague, Czech Republic

5:31 AM CEST on May 28, 2017 (GMT +0200)
Ruzyne

Weather History for LKPR - May, 2012

Change the Weather History Date:

Friday, May 4, 2012

  Actual Average Record
Temperature  
Mean Temperature 58 °F -  
Max Temperature 70 °F 66 °F 73 °F (2002)
Min Temperature 46 °F 46 °F 28 °F (2011)
Degree Days  
Heating Degree Days 7    
Growing Degree Days 8 (Base 50)    
Moisture  
Dew Point 46 °F    
Average Humidity 64    
Maximum Humidity 94    
Minimum Humidity 28    
Precipitation  
Precipitation 0.00 in 0.10 in - ()
Sea Level Pressure  
Sea Level Pressure 29.72 in    
Wind  
Wind Speed 5 mph ()    
Max Wind Speed 12 mph    
Max Gust Speed -    
Visibility 8.1 miles    
Events      
Averages and records for this station are not official NWS values.
T = Trace of Precipitation, MM = Missing Value Source: Averaged Metar Reports

Daily Weather History Graph

Daily Weather History Graph

Search for Another Location

Airport or City:

Trip Planner

Search our weather history database for the weather conditions in past years. The results will help you decide how hot, cold, wet, or windy it might be!

Date:

Astronomy

May. 04, 2012 Rise Set
Actual Time 5:33 AM CEST 8:26 PM CEST
Civil Twilight 4:55 AM CEST 9:04 PM CEST
Nautical Twilight 4:07 AM CEST 9:52 PM CEST
Astronomical Twilight 3:08 AM CEST 10:52 PM CEST
Moon 6:37 PM CEST (5/4) 4:14 AM CEST (5/4)
Length of Visible Light 16h 08m
Length of Day
14h 53m
Waxing Gibbous, 95% of the Moon is Illuminated
May 4
Waxing Gibbous
May 6
Full
May 12
Last Quarter
May 21
New
May 28
First Quarter

Hourly Weather History & Observations

Time (CEST) Temp. Windchill Dew Point Humidity Pressure Visibility Wind Dir Wind Speed Gust Speed Precip Events Conditions
12:00 AM 57.2 °F - 53.6 °F 88% 29.80 in 6.2 mi Variable 2.3 mph - N/A   Mostly Cloudy
12:30 AM 55.4 °F - 53.6 °F 94% 29.80 in 6.2 mi SSW 3.5 mph - N/A   Mostly Cloudy
1:00 AM 55.4 °F - 53.6 °F 94% 29.80 in 6.2 mi SSW 4.6 mph - N/A   Scattered Clouds
1:30 AM 55.4 °F - 53.6 °F 94% 29.77 in 6.2 mi West 4.6 mph - N/A   Scattered Clouds
2:00 AM 54 °F - 51 °F 88% 29.77 in 16 mi NW 6.7 mph - -   Partly Cloudy
2:00 AM 53.6 °F - 51.8 °F 94% 29.77 in 6.2 mi WNW 5.8 mph - N/A   Partly Cloudy
2:30 AM 51.8 °F - 48.2 °F 88% 29.77 in - West 5.8 mph - N/A   Clear
3:00 AM 51.8 °F - 50.0 °F 94% 29.77 in - West 6.9 mph - N/A   Clear
3:30 AM 51.8 °F - 48.2 °F 88% 29.77 in - West 8.1 mph - N/A   Clear
4:00 AM 50.0 °F - 46.4 °F 87% 29.77 in - West 5.8 mph - N/A   Clear
4:30 AM 48.2 °F - 46.4 °F 93% 29.77 in - SW 4.6 mph - N/A   Clear
5:00 AM 50.0 °F - 48.2 °F 94% 29.77 in - SW 6.9 mph - N/A   Clear
5:30 AM 48.2 °F - 46.4 °F 93% 29.74 in - SW 6.9 mph - N/A   Clear
6:00 AM 46.4 °F 43.5 °F 44.6 °F 93% 29.74 in - SW 5.8 mph - N/A   Clear
6:30 AM 48.2 °F - 46.4 °F 93% 29.77 in - SW 8.1 mph - N/A   Clear
7:00 AM 50.0 °F - 48.2 °F 94% 29.77 in - SW 6.9 mph - N/A   Clear
7:30 AM 53.6 °F - 48.2 °F 82% 29.77 in - SW 5.8 mph - N/A   Clear
8:00 AM 56 °F - 49 °F 70% 29.77 in 19 mi West 4.5 mph - -   Scattered Clouds
8:00 AM 55.4 °F - 50.0 °F 82% 29.77 in - WSW 4.6 mph - N/A   Clear
8:30 AM 57.2 °F - 46.4 °F 67% 29.77 in - West 4.6 mph - N/A   Clear
9:00 AM 59.0 °F - 48.2 °F 67% 29.77 in - West 3.5 mph - N/A   Clear
9:30 AM 60.8 °F - 46.4 °F 59% 29.77 in - North 2.3 mph - N/A   Clear
10:00 AM 60.8 °F - 46.4 °F 59% 29.77 in 6.2 mi Variable 1.2 mph - N/A   Partly Cloudy
10:30 AM 62.6 °F - 46.4 °F 55% 29.74 in 6.2 mi West 3.5 mph - N/A   Partly Cloudy
11:00 AM 62.6 °F - 46.4 °F 55% 29.74 in 6.2 mi NNE 4.6 mph - N/A   Partly Cloudy
11:30 AM 64.4 °F - 46.4 °F 52% 29.74 in 6.2 mi NNW 5.8 mph - N/A   Scattered Clouds
12:00 PM 62.6 °F - 44.6 °F 52% 29.74 in 6.2 mi NNW 5.8 mph - N/A   Mostly Cloudy
12:30 PM 64.4 °F - 46.4 °F 52% 29.74 in - North 4.6 mph - N/A   Clear
1:00 PM 64.4 °F - 44.6 °F 49% 29.71 in - North 4.6 mph - N/A   Clear
1:30 PM 64.4 °F - 46.4 °F 52% 29.71 in - North 4.6 mph - N/A   Clear
2:00 PM 67 °F - 45 °F 33% 29.68 in 37 mi West 6.7 mph - -   Partly Cloudy
2:00 PM 68.0 °F - 44.6 °F 43% 29.71 in - West 4.6 mph - N/A   Clear
2:30 PM 68.0 °F - 46.4 °F 46% 29.71 in - West 9.2 mph - N/A   Clear
3:00 PM 69.8 °F - 46.4 °F 43% 29.68 in - NNW 8.1 mph - N/A   Clear
3:30 PM 69.8 °F - 44.6 °F 40% 29.68 in - West 11.5 mph - N/A   Clear
4:00 PM 68.0 °F - 42.8 °F 40% 29.68 in - West 8.1 mph - N/A   Clear
4:30 PM 69.8 °F - 44.6 °F 40% 29.65 in - WSW 9.2 mph - N/A   Clear
5:00 PM 69.8 °F - 42.8 °F 38% 29.65 in - WNW 5.8 mph - N/A   Clear
5:30 PM 68.0 °F - 42.8 °F 40% 29.65 in - West 3.5 mph - N/A   Clear
6:00 PM 69.8 °F - 44.6 °F 40% 29.65 in - WNW 2.3 mph - N/A   Clear
6:30 PM 68.0 °F - 42.8 °F 40% 29.65 in - West 3.5 mph - N/A   Clear
7:00 PM 66.2 °F - 46.4 °F 49% 29.65 in - NW 2.3 mph - N/A   Clear
7:30 PM 66.2 °F - 44.6 °F 46% 29.65 in - North 3.5 mph - N/A   Clear
8:00 PM 66 °F - 41 °F 28% 29.63 in 47 mi ENE 2.2 mph - -   Scattered Clouds
8:00 PM 66.2 °F - 41.0 °F 40% 29.65 in - North 3.5 mph - N/A   Clear
8:30 PM 62.6 °F - 42.8 °F 48% 29.65 in - NE 3.5 mph - N/A   Clear
9:00 PM 62.6 °F - 42.8 °F 48% 29.65 in - ESE 2.3 mph - N/A   Clear
9:30 PM 60.8 °F - 44.6 °F 55% 29.65 in - East 3.5 mph - N/A   Clear
10:00 PM 59.0 °F - 44.6 °F 59% 29.65 in - ESE 4.6 mph - N/A   Clear
10:30 PM 57.2 °F - 42.8 °F 59% 29.65 in - ESE 4.6 mph - N/A   Clear
11:00 PM 53.6 °F - 44.6 °F 72% 29.65 in - SE 3.5 mph - N/A   Clear
11:30 PM 53.6 °F - 44.6 °F 72% 29.65 in - SSE 4.6 mph - N/A   Clear